| time (UTC) | temp F | wind direction | speed knots | gust knots | rain 1hr in | rain 24hr in | rain mn in | humidity % | barometer mb |
| 20260505094045 | 33 | 185 | 5.2 | 14.8 | 0.00 | 0.00 | 0.00 | 51 | 1016.8 |
| 20260505093522 | 33 | 331 | 4.3 | 10.4 | 0.00 | 0.00 | 0.00 | 51 | 1016.7 |
| 20260505093152 | 33 | 198 | 4.3 | 8.7 | 0.00 | 0.00 | 0.00 | 51 | 1016.7 |
| 20260505092526 | 33 | 313 | 1.7 | 5.2 | 0.00 | 0.00 | 0.00 | 53 | 1016.7 |
| 20260505092022 | 33 | 295 | 1.7 | 7.0 | 0.00 | 0.00 | 0.00 | 53 | 1016.9 |
| 20260505091631 | 33 | 314 | 3.5 | 7.0 | 0.00 | 0.00 | 0.00 | 55 | 1016.9 |
| 20260505091027 | 33 | 359 | 0.9 | 5.2 | 0.00 | 0.00 | 0.00 | 57 | 1016.9 |
| 20260505090520 | 33 | 291 | 1.7 | 5.2 | 0.00 | 0.00 | 0.00 | 58 | 1017.0 |
| 20260505090159 | 33 | 334 | 0.0 | 4.3 | 0.00 | 0.00 | 0.00 | 60 | 1017.1 |
| 20260505085525 | 32 | 302 | 0.9 | 5.2 | 0.00 | 0.00 | 0.00 | 62 | 1017.1 |
| 20260505085046 | 32 | 296 | 0.0 | 5.2 | 0.00 | 0.00 | 0.00 | 62 | 1017.1 |
| 20260505084618 | 32 | 262 | 0.0 | 0.9 | 0.00 | 0.00 | 0.00 | 62 | 1017.0 |
| 20260505084042 | 32 | 282 | 0.0 | 0.9 | 0.00 | 0.00 | 0.00 | 62 | 1017.0 |
| 20260505083545 | 31 | 282 | 0.0 | 1.7 | 0.00 | 0.00 | 0.00 | 63 | 1017.1 |
| 20260505083135 | 32 | 293 | 0.0 | 1.7 | 0.00 | 0.00 | 0.00 | 63 | 1017.0 |
| 20260505082545 | 32 | 277 | 0.0 | 0.9 | 0.00 | 0.00 | 0.00 | 63 | 1017.0 |
| 20260505082100 | 32 | 283 | 0.0 | 0.9 | 0.00 | 0.00 | 0.00 | 62 | 1017.2 |
| 20260505081629 | 32 | 297 | 0.0 | 2.6 | 0.00 | 0.00 | 0.00 | 62 | 1017.2 |
| 20260505081029 | 33 | 309 | 0.9 | 3.5 | 0.00 | 0.00 | 0.00 | 62 | 1017.3 |
| 20260505080521 | 32 | 288 | 0.9 | 3.5 | 0.00 | 0.00 | 0.00 | 62 | 1017.3 |
| 20260505080154 | 32 | 300 | 0.9 | 2.6 | 0.00 | 0.00 | 0.00 | 63 | 1017.4 |
| 20260505075537 | 32 | 291 | 0.0 | 1.7 | 0.00 | 0.00 | 0.00 | 62 | 1017.4 |
| 20260505075026 | 32 | 288 | 0.0 | 0.9 | 0.00 | 0.00 | 0.00 | 63 | 1017.4 |
| 20260505074609 | 31 | 233 | 0.0 | 0.9 | 0.00 | 0.00 | 0.00 | 64 | 1017.4 |
| 20260505074018 | 31 | 162 | 0.9 | 0.9 | 0.00 | 0.00 | 0.00 | 64 | 1017.3 |
| 20260505073540 | 31 | 163 | 0.0 | 0.9 | 0.00 | 0.00 | 0.00 | 64 | 1017.1 |
| 20260505073059 | 31 | 166 | 0.0 | 0.9 | 0.00 | 0.00 | 0.00 | 64 | 1017.0 |
| 20260505072546 | 31 | 165 | 0.0 | 1.7 | 0.00 | 0.00 | 0.00 | 64 | 1017.2 |
| 20260505072035 | 31 | 223 | 0.0 | 1.7 | 0.00 | 0.00 | 0.00 | 64 | 1017.2 |
| 20260505071617 | 31 | 158 | 0.0 | 1.7 | 0.00 | 0.00 | 0.00 | 64 | 1017.2 |
| 20260505071025 | 31 | 159 | 0.9 | 1.7 | 0.00 | 0.00 | 0.00 | 64 | 1017.2 |
| 20260505070525 | 31 | 160 | 0.9 | 1.7 | 0.00 | 0.00 | 0.00 | 63 | 1017.2 |
| 20260505070054 | 31 | 162 | 0.0 | 1.7 | 0.00 | 0.00 | 0.00 | 63 | 1017.3 |
| 20260505065526 | 31 | 165 | 0.0 | 1.7 | 0.00 | 0.00 | 0.00 | 64 | 1017.4 |
| 20260505065039 | 31 | 165 | 0.9 | 1.7 | 0.00 | 0.00 | 0.00 | 64 | 1017.4 |
| 20260505064612 | 31 | 172 | 0.9 | 1.7 | 0.00 | 0.00 | 0.00 | 64 | 1017.4 |
| 20260505064024 | 31 | 172 | 0.0 | 0.9 | 0.00 | 0.00 | 0.00 | 63 | 1017.5 |
| 20260505063546 | 31 | 160 | 0.0 | 0.9 | 0.00 | 0.00 | 0.00 | 63 | 1017.5 |
| 20260505063053 | 32 | 160 | 0.0 | 0.9 | 0.00 | 0.00 | 0.00 | 63 | 1017.5 |
| 20260505062536 | 31 | 160 | 0.0 | 1.7 | 0.00 | 0.00 | 0.00 | 63 | 1017.5 |
| 20260505062030 | 31 | 160 | 0.0 | 1.7 | 0.00 | 0.00 | 0.00 | 63 | 1017.4 |
| 20260505061612 | 32 | 160 | 0.9 | 1.7 | 0.00 | 0.00 | 0.00 | 63 | 1017.4 |
| 20260505061038 | 32 | 206 | 0.9 | 0.9 | 0.00 | 0.00 | 0.00 | 62 | 1017.4 |
| 20260505060538 | 32 | 206 | 0.9 | 1.7 | 0.00 | 0.00 | 0.00 | 62 | 1017.4 |
| 20260505060122 | 33 | 205 | 0.9 | 1.7 | 0.00 | 0.00 | 0.00 | 61 | 1017.4 |
| 20260505055515 | 33 | 240 | 0.9 | 1.7 | 0.00 | 0.00 | 0.00 | 59 | 1017.4 |
| 20260505055015 | 34 | 262 | 0.0 | 0.9 | 0.00 | 0.00 | 0.00 | 58 | 1017.4 |
| 20260505054549 | 34 | 263 | 0.0 | 0.9 | 0.00 | 0.00 | 0.00 | 58 | 1017.4 |
| 20260505054036 | 34 | 307 | 0.0 | 2.6 | 0.00 | 0.00 | 0.00 | 58 | 1017.4 |
| 20260505053531 | 34 | 307 | 0.9 | 2.6 | 0.00 | 0.00 | 0.00 | 57 | 1017.4 |
| 20260505053132 | 34 | 302 | 0.9 | 2.6 | 0.00 | 0.00 | 0.00 | 58 | 1017.4 |
| 20260505052527 | 35 | 305 | 0.9 | 3.5 | 0.00 | 0.00 | 0.00 | 57 | 1017.5 |
| 20260505052027 | 35 | 264 | 0.9 | 3.5 | 0.00 | 0.00 | 0.00 | 58 | 1017.5 |
| 20260505051611 | 35 | 250 | 0.9 | 5.2 | 0.00 | 0.00 | 0.00 | 57 | 1017.6 |
| 20260505051036 | 35 | 258 | 0.9 | 7.0 | 0.00 | 0.00 | 0.00 | 58 | 1017.6 |
| 20260505050529 | 34 | 285 | 1.7 | 7.0 | 0.00 | 0.00 | 0.00 | 57 | 1017.8 |
| 20260505050114 | 35 | 120 | 0.0 | 3.5 | 0.00 | 0.00 | 0.00 | 58 | 1017.6 |
| 20260505041558 | 35 | 311 | 1.7 | 5.2 | 0.00 | 0.00 | 0.00 | 57 | 1017.3 |
| 20260505041039 | 35 | 304 | 0.9 | 3.5 | 0.00 | 0.00 | 0.00 | 57 | 1017.3 |
| 20260505040517 | 36 | 284 | 1.7 | 6.1 | 0.00 | 0.00 | 0.00 | 57 | 1017.2 |
| 20260505040115 | 36 | 285 | 3.5 | 8.7 | 0.00 | 0.00 | 0.00 | 56 | 1017.2 |
| 20260505035517 | 36 | 303 | 3.5 | 13.0 | 0.00 | 0.00 | 0.00 | 56 | 1017.2 |
| 20260505035028 | 36 | 288 | 7.0 | 13.0 | 0.00 | 0.00 | 0.00 | 56 | 1017.2 |
| 20260505034614 | 36 | 331 | 3.5 | 8.7 | 0.00 | 0.00 | 0.00 | 57 | 1017.0 |
| 20260505034030 | 36 | 296 | 3.5 | 12.2 | 0.00 | 0.00 | 0.00 | 56 | 1017.1 |
| 20260505033519 | 36 | 314 | 6.1 | 12.2 | 0.00 | 0.00 | 0.00 | 56 | 1017.0 |
| 20260505033120 | 36 | 245 | 5.2 | 13.9 | 0.00 | 0.00 | 0.00 | 56 | 1017.1 |
| 20260505032525 | 36 | 298 | 5.2 | 13.9 | 0.00 | 0.00 | 0.00 | 57 | 1017.0 |
| 20260505032035 | 36 | 297 | 5.2 | 11.3 | 0.00 | 0.00 | 0.00 | 57 | 1016.8 |
| 20260505031604 | 36 | 288 | 5.2 | 9.6 | 0.00 | 0.00 | 0.00 | 58 | 1016.8 |
| 20260505031013 | 36 | 230 | 5.2 | 15.6 | 0.00 | 0.00 | 0.00 | 58 | 1016.7 |
| 20260505030543 | 36 | 313 | 5.2 | 15.6 | 0.00 | 0.00 | 0.00 | 58 | 1016.6 |
| 20260505030118 | 36 | 315 | 5.2 | 13.9 | 0.00 | 0.00 | 0.00 | 57 | 1016.6 |
| 20260505025536 | 37 | 305 | 4.3 | 13.9 | 0.00 | 0.00 | 0.00 | 57 | 1016.4 |
| 20260505025034 | 37 | 304 | 5.2 | 13.9 | 0.00 | 0.00 | 0.00 | 57 | 1016.3 |
| 20260505024541 | 37 | 143 | 6.1 | 16.5 | 0.00 | 0.00 | 0.00 | 57 | 1016.3 |
| 20260505024036 | 37 | 285 | 7.0 | 16.5 | 0.00 | 0.00 | 0.00 | 57 | 1016.3 |
| 20260505023534 | 37 | 316 | 6.1 | 14.8 | 0.00 | 0.00 | 0.00 | 56 | 1016.4 |
| 20260505023115 | 37 | 260 | 5.2 | 13.0 | 0.00 | 0.00 | 0.00 | 56 | 1016.3 |
| 20260505022535 | 37 | 266 | 5.2 | 13.0 | 0.00 | 0.00 | 0.00 | 56 | 1016.3 |
| 20260505022016 | 37 | 300 | 6.1 | 13.9 | 0.00 | 0.00 | 0.00 | 56 | 1016.3 |
| 20260505021621 | 37 | 323 | 5.2 | 11.3 | 0.00 | 0.00 | 0.00 | 56 | 1016.3 |
| 20260505021022 | 38 | 311 | 6.1 | 15.6 | 0.00 | 0.00 | 0.00 | 55 | 1016.3 |
| 20260505020525 | 38 | 284 | 7.0 | 15.6 | 0.00 | 0.00 | 0.00 | 56 | 1016.3 |
| 20260505015527 | 38 | 288 | 8.7 | 13.9 | 0.00 | 0.00 | 0.00 | 56 | 1016.3 |
| 20260505015035 | 38 | 292 | 6.1 | 15.6 | 0.00 | 0.00 | 0.00 | 56 | 1016.4 |
| 20260505014556 | 38 | 266 | 7.8 | 15.6 | 0.00 | 0.00 | 0.00 | 56 | 1016.5 |
| 20260505014019 | 38 | 293 | 9.6 | 18.2 | 0.00 | 0.00 | 0.00 | 56 | 1016.5 |
| 20260505013533 | 38 | 311 | 9.6 | 18.2 | 0.00 | 0.00 | 0.00 | 57 | 1016.5 |
| 20260505013110 | 38 | 327 | 8.7 | 14.8 | 0.00 | 0.00 | 0.00 | 57 | 1016.5 |
| 20260505012522 | 38 | 274 | 8.7 | 14.8 | 0.00 | 0.00 | 0.00 | 57 | 1016.5 |
| 20260505012016 | 38 | 294 | 7.8 | 18.2 | 0.00 | 0.00 | 0.00 | 57 | 1016.4 |
| 20260505011602 | 38 | 276 | 7.0 | 18.2 | 0.00 | 0.00 | 0.00 | 59 | 1016.3 |
| 20260505011017 | 38 | 299 | 7.8 | 17.4 | 0.00 | 0.00 | 0.00 | 59 | 1016.5 |
| 20260505010539 | 38 | 295 | 8.7 | 17.4 | 0.00 | 0.00 | 0.00 | 59 | 1016.5 |
| 20260505010127 | 38 | 283 | 8.7 | 16.5 | 0.00 | 0.00 | 0.00 | 62 | 1016.4 |
| 20260505005600 | 38 | 272 | 9.6 | 18.2 | 0.00 | 0.00 | 0.00 | 62 | 1016.4 |
| 20260505005035 | 38 | 307 | 7.8 | 18.2 | 0.00 | 0.00 | 0.00 | 63 | 1016.4 |
| 20260505004629 | 38 | 304 | 10.4 | 16.5 | 0.00 | 0.00 | 0.00 | 63 | 1016.3 |
| 20260505004114 | 39 | 272 | 7.8 | 16.5 | 0.00 | 0.00 | 0.00 | 64 | 1016.5 |
| 20260505003518 | 39 | 269 | 9.6 | 19.1 | 0.00 | 0.00 | 0.00 | 64 | 1016.6 |
| 20260505003129 | 39 | 323 | 5.2 | 19.1 | 0.00 | 0.00 | 0.00 | 64 | 1016.8 |
| 20260505002518 | 39 | 280 | 6.1 | 16.5 | 0.00 | 0.00 | 0.00 | 63 | 1016.7 |
| 20260505002035 | 40 | 297 | 7.8 | 16.5 | 0.00 | 0.00 | 0.00 | 63 | 1016.6 |
| 20260505001625 | 40 | 319 | 5.2 | 13.9 | 0.00 | 0.00 | 0.00 | 64 | 1016.7 |
| 20260505001034 | 41 | 179 | 2.6 | 16.5 | 0.00 | 0.00 | 0.00 | 64 | 1016.6 |
| 20260505000539 | 41 | 266 | 7.0 | 16.5 | 0.00 | 0.00 | 0.00 | 63 | 1016.7 |
| 20260505000151 | 41 | 282 | 7.8 | 14.8 | 0.00 | 0.00 | 0.00 | 63 | 1016.7 |
| 20260504235535 | 41 | 324 | 6.1 | 15.6 | 0.00 | 0.00 | 0.00 | 65 | 1016.6 |
| 20260504235034 | 41 | 314 | 5.2 | 15.6 | 0.00 | 0.00 | 0.00 | 64 | 1016.6 |
| 20260504234638 | 42 | 289 | 6.1 | 16.5 | 0.00 | 0.00 | 0.00 | 61 | 1016.6 |
| 20260504234034 | 42 | 290 | 4.3 | 16.5 | 0.00 | 0.00 | 0.00 | 62 | 1016.4 |
| 20260504233545 | 42 | 274 | 7.0 | 16.5 | 0.00 | 0.00 | 0.00 | 62 | 1016.4 |
| 20260504233050 | 42 | 259 | 7.0 | 16.5 | 0.00 | 0.00 | 0.00 | 63 | 1016.5 |
| 20260504232523 | 42 | 291 | 6.1 | 12.2 | 0.00 | 0.00 | 0.00 | 62 | 1016.5 |
| 20260504232039 | 42 | 291 | 4.3 | 11.3 | 0.00 | 0.00 | 0.00 | 62 | 1016.3 |
| 20260504231559 | 42 | 311 | 4.3 | 12.2 | 0.00 | 0.00 | 0.00 | 62 | 1016.4 |
| 20260504231022 | 41 | 248 | 3.5 | 13.9 | 0.00 | 0.00 | 0.00 | 64 | 1016.5 |
| 20260504230542 | 41 | 271 | 5.2 | 15.6 | 0.00 | 0.00 | 0.00 | 64 | 1016.5 |
| 20260504230137 | 41 | 295 | 4.3 | 15.6 | 0.00 | 0.00 | 0.00 | 63 | 1016.4 |
| 20260504225543 | 41 | 311 | 3.5 | 11.3 | 0.00 | 0.00 | 0.00 | 63 | 1016.4 |
| 20260504225024 | 42 | 331 | 5.2 | 11.3 | 0.00 | 0.00 | 0.00 | 62 | 1016.4 |
| 20260504224609 | 42 | 220 | 3.5 | 15.6 | 0.00 | 0.00 | 0.00 | 62 | 1016.4 |
| 20260504224026 | 42 | 240 | 6.1 | 10.4 | 0.00 | 0.00 | 0.00 | 60 | 1016.4 |
| 20260504223524 | 43 | 307 | 3.5 | 14.8 | 0.00 | 0.00 | 0.00 | 59 | 1016.5 |
| 20260504223050 | 44 | 291 | 6.1 | 14.8 | 0.00 | 0.00 | 0.00 | 58 | 1016.3 |
| 20260504222536 | 44 | 295 | 3.5 | 9.6 | 0.00 | 0.00 | 0.00 | 58 | 1016.1 |
| 20260504222025 | 44 | 219 | 3.5 | 14.8 | 0.00 | 0.00 | 0.00 | 57 | 1016.0 |
| 20260504221617 | 45 | 275 | 7.0 | 14.8 | 0.00 | 0.00 | 0.00 | 56 | 1016.2 |
| 20260504221038 | 45 | 293 | 4.3 | 10.4 | 0.00 | 0.00 | 0.00 | 55 | 1016.0 |
| 20260504220521 | 45 | 305 | 2.6 | 11.3 | 0.00 | 0.00 | 0.00 | 55 | 1016.2 |
| 20260504220129 | 44 | 318 | 4.3 | 11.3 | 0.00 | 0.00 | 0.00 | 56 | 1016.0 |
| 20260504215546 | 44 | 285 | 5.2 | 9.6 | 0.00 | 0.00 | 0.00 | 55 | 1016.2 |
| 20260504215034 | 45 | 314 | 4.3 | 12.2 | 0.00 | 0.00 | 0.00 | 54 | 1016.2 |
| 20260504214629 | 45 | 279 | 4.3 | 12.2 | 0.00 | 0.00 | 0.00 | 55 | 1016.2 |
| 20260504214035 | 45 | 125 | 3.5 | 12.2 | 0.00 | 0.00 | 0.00 | 53 | 1016.3 |
| 20260504213533 | 46 | 114 | 7.0 | 12.2 | 0.00 | 0.00 | 0.00 | 52 | 1016.3 |
| 20260504213105 | 46 | 77 | 3.5 | 8.7 | 0.00 | 0.00 | 0.00 | 52 | 1016.2 |
| 20260504212536 | 45 | 307 | 3.5 | 8.7 | 0.00 | 0.00 | 0.00 | 51 | 1016.1 |
| 20260504212022 | 46 | 143 | 0.0 | 7.8 | 0.00 | 0.00 | 0.00 | 52 | 1016.2 |
| 20260504211617 | 45 | 253 | 1.7 | 10.4 | 0.00 | 0.00 | 0.00 | 51 | 1016.2 |
| 20260504211021 | 44 | 295 | 2.6 | 10.4 | 0.00 | 0.00 | 0.00 | 55 | 1016.3 |
| 20260504210543 | 44 | 230 | 2.6 | 9.6 | 0.00 | 0.00 | 0.00 | 52 | 1016.5 |
| 20260504210128 | 44 | 311 | 3.5 | 10.4 | 0.00 | 0.00 | 0.00 | 52 | 1016.4 |
| 20260504205535 | 45 | 288 | 4.3 | 10.4 | 0.00 | 0.00 | 0.00 | 53 | 1016.4 |
| 20260504205022 | 45 | 296 | 2.6 | 10.4 | 0.00 | 0.00 | 0.00 | 51 | 1016.3 |
| 20260504204639 | 45 | 316 | 6.1 | 10.4 | 0.00 | 0.00 | 0.00 | 53 | 1016.9 |
| 20260504204034 | 44 | 109 | 2.6 | 8.7 | 0.00 | 0.00 | 0.00 | 52 | 1016.7 |
| 20260504203537 | 43 | 243 | 2.6 | 11.3 | 0.00 | 0.00 | 0.00 | 52 | 1016.7 |
| 20260504203120 | 44 | 51 | 5.2 | 12.2 | 0.00 | 0.00 | 0.00 | 50 | 1017.0 |
| 20260504202535 | 45 | 75 | 3.5 | 12.2 | 0.00 | 0.00 | 0.00 | 49 | 1016.8 |
| 20260504202029 | 44 | 301 | 3.5 | 14.8 | 0.00 | 0.00 | 0.00 | 50 | 1016.8 |
| 20260504201620 | 43 | 312 | 3.5 | 14.8 | 0.00 | 0.00 | 0.00 | 53 | 1016.7 |
| 20260504201059 | 43 | 312 | 3.5 | 14.8 | 0.00 | 0.00 | 0.00 | 52 | 1016.7 |
| 20260504200555 | 43 | 293 | 3.5 | 7.8 | 0.00 | 0.00 | 0.00 | 52 | 1016.7 |
| 20260504200135 | 42 | 296 | 0.9 | 10.4 | 0.00 | 0.00 | 0.00 | 53 | 1016.7 |
| 20260504195533 | 42 | 292 | 5.2 | 10.4 | 0.00 | 0.00 | 0.00 | 52 | 1016.7 |
| 20260504195046 | 42 | 311 | 4.3 | 14.8 | 0.00 | 0.00 | 0.00 | 51 | 1016.7 |
| 20260504194647 | 42 | 216 | 4.3 | 14.8 | 0.00 | 0.00 | 0.00 | 54 | 1016.6 |
| 20260504194027 | 42 | 243 | 5.2 | 10.4 | 0.00 | 0.00 | 0.00 | 53 | 1016.8 |
| 20260504193525 | 42 | 281 | 3.5 | 14.8 | 0.00 | 0.00 | 0.00 | 54 | 1016.8 |
| 20260504193130 | 42 | 308 | 6.1 | 14.8 | 0.00 | 0.00 | 0.00 | 53 | 1016.8 |
| 20260504192531 | 42 | 282 | 4.3 | 12.2 | 0.00 | 0.00 | 0.00 | 53 | 1016.8 |
| 20260504192027 | 42 | 207 | 3.5 | 11.3 | 0.00 | 0.00 | 0.00 | 53 | 1016.9 |
| 20260504191623 | 42 | 231 | 4.3 | 9.6 | 0.00 | 0.00 | 0.00 | 52 | 1016.8 |
| 20260504191100 | 42 | 300 | 3.5 | 8.7 | 0.00 | 0.00 | 0.00 | 52 | 1016.7 |
| 20260504190550 | 42 | 302 | 0.9 | 11.3 | 0.00 | 0.00 | 0.00 | 53 | 1016.6 |
| 20260504190158 | 41 | 319 | 4.3 | 11.3 | 0.00 | 0.00 | 0.00 | 55 | 1016.6 |
| 20260504185536 | 41 | 288 | 3.5 | 9.6 | 0.00 | 0.00 | 0.00 | 54 | 1016.7 |
| 20260504185051 | 41 | 290 | 2.6 | 14.8 | 0.00 | 0.00 | 0.00 | 55 | 1016.7 |
| 20260504184627 | 40 | 273 | 4.3 | 14.8 | 0.00 | 0.00 | 0.00 | 56 | 1016.9 |
| 20260504184048 | 40 | 158 | 1.7 | 11.3 | 0.00 | 0.00 | 0.00 | 56 | 1017.0 |
| 20260504183520 | 40 | 299 | 2.6 | 13.0 | 0.00 | 0.00 | 0.00 | 57 | 1017.1 |
| 20260504183101 | 40 | 268 | 5.2 | 13.0 | 0.00 | 0.00 | 0.00 | 56 | 1017.0 |
| 20260504182532 | 40 | 276 | 2.6 | 7.0 | 0.00 | 0.00 | 0.00 | 59 | 1016.9 |
| 20260504182045 | 40 | 300 | 2.6 | 10.4 | 0.00 | 0.00 | 0.00 | 60 | 1017.1 |
| 20260504181614 | 40 | 283 | 2.6 | 10.4 | 0.00 | 0.00 | 0.00 | 59 | 1017.1 |
| 20260504181055 | 40 | 284 | 3.5 | 7.0 | 0.00 | 0.00 | 0.00 | 61 | 1017.1 |
| 20260504180532 | 40 | 268 | 1.7 | 6.1 | 0.00 | 0.00 | 0.00 | 62 | 1017.1 |
| 20260504180222 | 40 | 225 | 1.7 | 6.1 | 0.00 | 0.00 | 0.00 | 63 | 1017.1 |
| 20260504175604 | 40 | 266 | 1.7 | 7.0 | 0.00 | 0.00 | 0.00 | 63 | 1017.2 |
| 20260504175030 | 40 | 302 | 3.5 | 7.8 | 0.00 | 0.00 | 0.00 | 64 | 1017.0 |
| 20260504174620 | 40 | 285 | 2.6 | 7.8 | 0.00 | 0.00 | 0.00 | 63 | 1017.0 |
| 20260504174025 | 40 | 324 | 2.6 | 7.0 | 0.00 | 0.00 | 0.00 | 63 | 1016.9 |
| 20260504173533 | 40 | 300 | 2.6 | 7.8 | 0.00 | 0.00 | 0.00 | 63 | 1017.0 |
| 20260504173208 | 41 | 280 | 1.7 | 7.0 | 0.00 | 0.00 | 0.00 | 62 | 1017.1 |
| 20260504172539 | 41 | 255 | 2.6 | 7.8 | 0.00 | 0.00 | 0.00 | 62 | 1017.0 |
| 20260504172038 | 41 | 316 | 2.6 | 7.8 | 0.00 | 0.00 | 0.00 | 61 | 1017.1 |
| 20260504171618 | 41 | 256 | 3.5 | 7.8 | 0.00 | 0.00 | 0.00 | 60 | 1017.0 |
| 20260504171023 | 42 | 312 | 1.7 | 7.0 | 0.00 | 0.00 | 0.00 | 60 | 1017.1 |
| 20260504170534 | 42 | 218 | 2.6 | 8.7 | 0.00 | 0.00 | 0.00 | 59 | 1017.0 |
| 20260504170124 | 42 | 278 | 1.7 | 8.7 | 0.00 | 0.00 | 0.00 | 60 | 1017.1 |
| 20260504160142 | 43 | 263 | 1.7 | 7.8 | 0.00 | 0.00 | 0.00 | 57 | 1017.1 |
| 20260504151039 | 40 | 56 | 2.6 | 7.0 | 0.00 | 0.00 | 0.00 | 63 | 1016.9 |
| 20260504150532 | 40 | 268 | 3.5 | 7.8 | 0.00 | 0.00 | 0.00 | 65 | 1017.0 |
| 20260504150142 | 39 | 291 | 1.7 | 8.7 | 0.00 | 0.00 | 0.00 | 66 | 1017.1 |
| 20260504141047 | 37 | 260 | 3.5 | 8.7 | 0.00 | 0.00 | 0.00 | 68 | 1017.0 |
| 20260504140547 | 37 | 313 | 3.5 | 10.4 | 0.00 | 0.00 | 0.00 | 69 | 1016.8 |
| 20260504140130 | 37 | 309 | 5.2 | 11.3 | 0.00 | 0.00 | 0.00 | 69 | 1016.6 |
| 20260504130521 | 36 | 295 | 5.2 | 13.0 | 0.00 | 0.00 | 0.00 | 70 | 1016.3 |
| 20260504120132 | 35 | 195 | 7.0 | 17.4 | 0.00 | 0.00 | 0.00 | 73 | 1016.0 |
| 20260504110526 | 36 | 153 | 7.8 | 15.6 | 0.00 | 0.00 | 0.00 | 71 | 1016.3 |
| 20260504110115 | 36 | 226 | 9.6 | 15.6 | 0.00 | 0.00 | 0.00 | 71 | 1016.3 |
| 20260504100545 | 37 | 309 | 9.6 | 21.7 | 0.00 | 0.00 | 0.00 | 67 | 1015.3 |
| 20260504100117 | 37 | 316 | 8.7 | 21.7 | 0.00 | 0.00 | 0.00 | 66 | 1015.1 |